Regional Weather Roundup
Issued by NWS

Home | Current Version | Previous Version | Graphics & Text | Print | Product List | Glossary On
Versions: 1 2 3 4 5 6 7 8 9 10 11 12 13 14 15 16 17 18 19 20 21 22 23 24 25 26 27
000
ASUS45 KSLC 231510
RWRUT

UTAH REGIONAL WEATHER ROUNDUP
NATIONAL WEATHER SERVICE SALT LAKE CITY UT
900 AM MDT SUN JUL 23 2017

UTZ001>011-023>025-231600-

NORTHERN UTAH

CITY           SKY/WX    TMP DP  RH WIND       PRES   REMARKS
BRIGHAM CITY   PTSUNNY   73  39  28 NW3       30.10S
HILL AFB       SUNNY     72  39  30 E22       30.13R
LOGAN          MOSUNNY   65  44  46 CALM      30.15F
OGDEN          MOSUNNY   75  43  31 SE5       30.09R
SALT LAKE CITY MOSUNNY   78  50  37 S3        30.09R
TOOELE VALLEY  SUNNY     79  52  38 SW3       30.10S
WENDOVER       PTSUNNY   82  33  17 S5        30.10R
HEBER CITY     SUNNY     64  45  48 CALM      30.22R
WEST JORDAN    SUNNY     77  55  46 CALM      30.13S

$$

UTZ011>015-024>027-231600-

CENTRAL/NORTHEAST UTAH

CITY           SKY/WX    TMP DP  RH WIND       PRES   REMARKS
PROVO AIRPORT  MOSUNNY   76  52  43 SE7       30.13R
MOAB/CANYONLAN SUNNY     79  51  37 SE8       30.12R
DELTA          CLOUDY    77  46  33 CALM      30.12S
PRICE          MOSUNNY   77  45  32 E3        30.22S
RICHFIELD      SUNNY     73  52  46 SE3       30.20S
ROOSEVELT      SUNNY     72  45  37 CALM      30.22R
VERNAL         SUNNY     76  40  27 CALM      30.19S

$$

UTZ013>016-019>022-027-231600-

SOUTHERN UTAH

CITY           SKY/WX    TMP DP  RH WIND       PRES   REMARKS
BRYCE CANYON   SUNNY     67  48  50 CALM      30.36S
CEDAR CITY     SUNNY     78  46  32 CALM      30.17S
MILFORD        MOSUNNY   76  51  41 SE6       30.13R
ST GEORGE      SUNNY     86  52  30 CALM      29.97S
HANKSVILLE     SUNNY     79  43  27 CALM      30.14S
KANAB          SUNNY     77  52  41 NW9       30.17R
BLANDING       SUNNY     73  52  46 NE5       30.31S

$$

REGIONAL REPORTS     COLORADO/ARIZONA

CITY           SKY/WX    TMP DP  RH WIND       PRES   REMARKS
CRAIG, CO      SUNNY     66  43  43 CALM      30.28F
GRAND JUNCTION SUNNY     77  48  35 E15       30.18R
RIFLE, CO      SUNNY     68  46  45 N5        30.24F
MONTROSE, CO   SUNNY     72  46  39 CALM      30.26F
CORTEZ, CO     CLOUDY    75  55  49 CALM      30.25R
COLORADO CITY    N/A     77  57  50 CALM      30.15S
PAGE, AZ       SUNNY     83  53  35 N3        30.08S
GRAND CANYON   PTSUNNY   73  54  51 CALM      30.26R
KINGMAN, AZ    SUNNY     84  57  39 SE3       30.02R
FLAGSTAFF, AZ  PTSUNNY   67  56  67 E6        30.29R

$$

REGIONAL REPORTS    NEVADA/IDAHO/WYOMING

CITY           SKY/WX    TMP DP  RH WIND       PRES   REMARKS
LAS VEGAS, NV  MOSUNNY   92  58  31 SE3       29.88R HX  91
ELY, NY        MOSUNNY  N/A N/A N/A SW3       30.25R
ELKO, NV       SUNNY     72  30  21 E3        30.16R
POCATELLO, ID  MOSUNNY   70  44  39 NE6       30.16R
BURLEY, ID     MOSUNNY   73  42  32 S7        30.10R
FORT BRIDGER,    N/A     66  31  27 SW3       30.35R
EVANSTON, WY   CLOUDY    64  35  34 NE5       30.33R
ROCK SPRINGS,  SUNNY     68  34  28 CALM      30.31R
KEMMERER, WY     N/A     61  34  36 NW8       30.35R

$$




USA.gov is the U.S. government's official web portal to all federal, state and local government web resources and services.